Flag for U.S.A. Weather past 2 weeks in Lancaster, California, U.S.A.

Now
80 °F

Sunny.


Feels Like: 78 °F
Forecast: 50 / 84 °F
Wind: 16 mph from Southwest

Location: Lancaster / Fox Field

Current Time: Mar 28, 2015 at 6:50:59 PM

Latest Report: Mar 28, 2015 at 5:56 PM


Visibility: 10 mi

Pressure: 30.00 "Hg

Humidity: 13%

Dew point: 24 °F

Location of LancasterLocation

Historic Weather in Lancaster — Graph

°F

Lancaster temperature yesterday

Maximum temperature yesterday: 86 °F (at 2:56 PM)
Minimum temperature yesterday: 43 °F (at 4:56 AM)
Average temperature yesterday: 65 °F

Past Weeks' High & Low Weather Summary

 TemperatureHumidityPressure
High86 °F (Mar 27, 2:56 PM)83% (Mar 22, 10:56 PM)30.24 "Hg (Mar 22, 10:56 PM)
Low38 °F (Mar 14, 5:56 AM)7% (Mar 20, 3:56 PM)29.90 "Hg (Mar 18, 4:56 PM)
Average62 °F40%30.07 "Hg
* Reported Mar 13 5:56 PM — Mar 28 5:56 PM, Lancaster, Weather by CustomWeather, © 2015

Note: Actual official high and low records may vary slightly from our data, if they occured in-between our weather recording intervals... More about our weather records

Advertising

Lancaster weather history for previous 24 hours

 ConditionsComfort  
Time TempWeatherWind HumidityBarometerVisibility
5:56 PM
Sat, Mar 28
80 °FSunny.16 mph13%30.00 "Hg10 mi
4:56 PM82 °FSunny.17 mph13%30.00 "Hg10 mi
3:56 PM83 °FSunny.18 mph12%29.99 "Hg10 mi
2:56 PM84 °FSunny.16 mph9%30.00 "Hg10 mi
1:56 PM84 °FSunny.13 mph10%30.02 "Hg10 mi
12:56 PM83 °FSunny.13 mph10%30.05 "Hg10 mi
11:56 AM82 °FSunny.13 mph13%30.06 "Hg10 mi
10:56 AM78 °FSunny.No wind20%30.08 "Hg10 mi
9:56 AM73 °FSunny.3 mph29%30.09 "Hg10 mi
8:56 AM67 °FSunny.5 mph39%30.10 "Hg10 mi
7:56 AM58 °FSunny.No wind50%30.10 "Hg10 mi
6:56 AM59 °FClear.7 mph51%30.09 "Hg10 mi
5:56 AM58 °FClear.9 mph56%30.08 "Hg10 mi
4:56 AM60 °FClear.10 mph52%30.07 "Hg10 mi
3:56 AM61 °FClear.12 mph46%30.06 "Hg10 mi
2:56 AM62 °FClear.9 mph41%30.07 "Hg10 mi
1:56 AM63 °FClear.10 mph40%30.07 "Hg10 mi
12:56 AM63 °FClear.13 mph37%30.07 "Hg10 mi
11:56 PM
Fri, Mar 27
63 °FClear.12 mph40%30.07 "Hg10 mi
10:56 PM62 °FClear.8 mph38%30.09 "Hg10 mi
9:56 PM64 °FClear.9 mph30%30.09 "Hg10 mi
8:56 PM68 °FClear.12 mph20%30.08 "Hg10 mi
7:56 PM73 °FSunny.17 mph16%30.06 "Hg10 mi
6:56 PM77 °FSunny.17 mph14%30.05 "Hg10 mi
Weather by CustomWeather, © 2015

See weather overviewHow to use our weather pages